Volver al catálogo

STARLINK-32613

ActivoComunicacionesVLEO
NORAD 61970·PAYLOAD·🇺🇸 United States

Lanzado Nov 14, 2024 desde Cape Canaveral Space Force Station

Loading…

Próximos Pases (próximas 24 horas)

TLE

ActualizadoSource: CelesTrak SupGP

Época: Sep 15, 2026, 02:55 UTC

1 61970C 24210M   26258.12201389 -.00060567  00000+0 -21943-2 0  2585
2 61970  42.9997 190.3375 0001367 273.3572 220.8146 15.27600051    10

Sigue STARLINK-32613 en tiempo real con AllMySat

Download on the App Store